TimeEST,TemperatureF,Dew PointF,Humidity,Sea Level PressureIn,VisibilityMPH,Wind Direction,Wind SpeedMPH,Gust SpeedMPH,PrecipitationIn,Events,Conditions,WindDirDegrees,DateUTC
12:53 AM,41.0,39.0,93,30.07,10.0,NNW,5.8,-,N/A,,Overcast,330,2013-11-03 04:53:00
1:53 AM,42.1,39.9,92,30.09,10.0,NNW,5.8,-,N/A,,Overcast,330,2013-11-03 05:53:00
1:53 AM,42.1,39.9,92,30.11,10.0,NW,5.8,-,N/A,,Overcast,310,2013-11-03 06:53:00
2:53 AM,42.1,39.9,92,30.13,10.0,NNW,5.8,-,N/A,,Overcast,330,2013-11-03 07:53:00
3:53 AM,42.1,39.0,89,30.14,10.0,North,4.6,-,N/A,,Overcast,10,2013-11-03 08:53:00
4:53 AM,41.0,39.0,93,30.17,10.0,North,5.8,-,N/A,,Overcast,360,2013-11-03 09:53:00
5:53 AM,41.0,37.9,89,30.21,10.0,North,5.8,-,N/A,,Overcast,10,2013-11-03 10:53:00
6:44 AM,41.0,37.4,87,30.22,10.0,North,6.9,-,N/A,,Overcast,360,2013-11-03 11:44:00
6:53 AM,41.0,37.0,86,30.24,10.0,North,6.9,-,N/A,,Overcast,10,2013-11-03 11:53:00
7:21 AM,41.0,37.4,87,30.24,10.0,North,5.8,-,N/A,,Overcast,10,2013-11-03 12:21:00
7:53 AM,41.0,36.0,82,30.28,10.0,NW,4.6,-,N/A,,Overcast,320,2013-11-03 12:53:00
8:53 AM,42.1,36.0,79,30.30,10.0,North,5.8,-,N/A,,Overcast,10,2013-11-03 13:53:00
9:53 AM,44.1,36.0,73,30.32,10.0,North,3.5,-,N/A,,Overcast,10,2013-11-03 14:53:00
10:53 AM,46.9,36.0,66,30.32,10.0,North,3.5,-,N/A,,Partly Cloudy,350,2013-11-03 15:53:00
11:53 AM,48.9,36.0,61,30.34,10.0,East,3.5,-,N/A,,Partly Cloudy,90,2013-11-03 16:53:00
12:06 PM,51.8,35.6,54,30.32,10.0,North,4.6,-,N/A,,Mostly Cloudy,360,2013-11-03 17:06:00
12:27 PM,48.2,35.6,62,30.31,10.0,North,4.6,-,N/A,,Mostly Cloudy,360,2013-11-03 17:27:00
12:53 PM,48.9,35.1,59,30.32,10.0,Calm,Calm,-,N/A,,Partly Cloudy,0,2013-11-03 17:53:00
1:53 PM,48.9,34.0,56,30.32,10.0,East,3.5,-,N/A,,Clear,90,2013-11-03 18:53:00
2:53 PM,52.0,32.0,47,30.31,10.0,Calm,Calm,-,N/A,,Mostly Cloudy,0,2013-11-03 19:53:00
3:53 PM,52.0,33.1,49,30.32,10.0,ENE,8.1,-,N/A,,Scattered Clouds,70,2013-11-03 20:53:00
4:53 PM,48.9,35.1,59,30.33,10.0,NE,3.5,-,N/A,,Scattered Clouds,50,2013-11-03 21:53:00
5:53 PM,46.0,34.0,63,30.34,10.0,Calm,Calm,-,N/A,,Scattered Clouds,0,2013-11-03 22:53:00
6:53 PM,42.1,34.0,73,30.36,10.0,NE,3.5,-,N/A,,Partly Cloudy,40,2013-11-03 23:53:00
7:53 PM,39.0,33.1,79,30.38,10.0,NE,5.8,-,N/A,,Clear,40,2013-11-04 00:53:00
8:53 PM,37.9,32.0,79,30.39,10.0,East,5.8,-,N/A,,Clear,80,2013-11-04 01:53:00
9:53 PM,37.9,30.9,76,30.40,10.0,East,5.8,-,N/A,,Clear,90,2013-11-04 02:53:00
10:53 PM,39.0,30.9,73,30.41,10.0,East,8.1,-,N/A,,Clear,90,2013-11-04 03:53:00